Weather History for KMTJ - October, 2011

Change the Weather History Date:

Saturday, October 15, 2011

  Actual Average Record
Temperature  
Mean Temperature 60 °F 50 °F  
Max Temperature 81 °F 65 °F 81 °F (2011)
Min Temperature 41 °F 36 °F 28 °F (1997)
Degree Days  
Heating Degree Days 4 15  
Month to date heating degree days 177  
Since 1 July heating degree days 304  
Cooling Degree Days 0 0  
Month to date cooling degree days 0  
Year to date cooling degree days 643  
Growing Degree Days 10 (Base 50)    
Moisture  
Dew Point 30 °F    
Average Humidity 38    
Maximum Humidity 67    
Minimum Humidity 14    
Precipitation  
Precipitation 0.00 in 0.04 in 0.01 in (2013)
Month to date precipitation 0.74  
Year to date precipitation 9.39  
Sea Level Pressure  
Sea Level Pressure 30.03 in    
Wind  
Wind Speed 5 mph (SSE)    
Max Wind Speed 10 mph    
Max Gust Speed -    
Visibility 10 miles    
Events      
T = Trace of Precipitation, MM = Missing Value Source: NWS Daily Summary

Daily Weather History Graph

Daily Weather History Graph

Search for Another Location

Airport or City:

Trip Planner

Search our weather history database for the weather conditions in past years. The results will help you decide how hot, cold, wet, or windy it might be!

Date:

Astronomy

Oct. 15, 2011 Rise Set
Actual Time 7:20 AM MDT 6:33 PM MDT
Civil Twilight 6:53 AM MDT 7:00 PM MDT
Nautical Twilight 6:22 AM MDT 7:31 PM MDT
Astronomical Twilight 5:52 AM MDT 8:01 PM MDT
Moon 8:35 PM MDT (10/15) 10:44 AM MDT (10/15)
Length of Visible Light 12h 06m
Length of Day
11h 13m
Waning Gibbous, 88% of the Moon is Illuminated
Oct 15
Waning Gibbous
Oct 19
Last Quarter
Oct 26
New
Nov 2
First Quarter
Nov 10
Full

Hourly Weather History & Observations

Time (MDT) Temp. Windchill Dew Point Humidity Pressure Visibility Wind Dir Wind Speed Gust Speed Precip Events Conditions
12:53 AM 48.0 °F - 32.0 °F 54% 30.05 in 10.0 mi SSE 4.6 mph - N/A   Clear
1:53 AM 46.0 °F 42.5 °F 30.9 °F 56% 30.06 in 10.0 mi SSE 6.9 mph - N/A   Clear
2:53 AM 44.1 °F 40.1 °F 30.9 °F 60% 30.07 in 10.0 mi SE 6.9 mph - N/A   Clear
3:53 AM 43.0 °F 38.2 °F 30.9 °F 62% 30.08 in 10.0 mi SSE 8.1 mph - N/A   Clear
4:53 AM 43.0 °F 38.8 °F 30.9 °F 62% 30.07 in 10.0 mi South 6.9 mph - N/A   Clear
5:53 AM 41.0 °F 36.4 °F 30.9 °F 67% 30.09 in 10.0 mi SE 6.9 mph - N/A   Clear
7:53 AM 43.0 °F 39.5 °F 32.0 °F 65% 30.15 in 10.0 mi SSE 5.8 mph - N/A   Clear
8:53 AM 48.9 °F - 33.1 °F 54% 30.15 in 10.0 mi South 4.6 mph - N/A   Clear
10:53 AM 62.1 °F - 30.9 °F 31% 30.09 in 10.0 mi NW 6.9 mph - N/A   Clear
11:53 AM 66.0 °F - 30.9 °F 27% 30.07 in 10.0 mi Calm Calm - N/A   Clear
12:53 PM 72.0 °F - 33.1 °F 24% 30.03 in 10.0 mi Variable 3.5 mph - N/A   Clear
1:53 PM 75.0 °F - 32.0 °F 21% 29.99 in 10.0 mi Calm Calm - N/A   Clear
2:53 PM 78.1 °F - 28.9 °F 17% 29.97 in 10.0 mi Calm Calm - N/A   Clear
3:53 PM 80.1 °F - 28.0 °F 15% 29.95 in 10.0 mi NNE 5.8 mph - N/A   Clear
4:53 PM 80.1 °F - 26.1 °F 14% 29.94 in 10.0 mi Calm Calm - N/A   Clear
5:53 PM 77.0 °F - 25.0 °F 15% 29.95 in 10.0 mi West 4.6 mph - N/A   Clear
6:53 PM 70.0 °F - 26.1 °F 19% 29.97 in 10.0 mi South 4.6 mph - N/A   Clear
7:53 PM 62.1 °F - 27.0 °F 26% 30.01 in 10.0 mi SE 8.1 mph - N/A   Clear
8:53 PM 60.1 °F - 28.0 °F 30% 30.00 in 10.0 mi ESE 10.4 mph - N/A   Clear
9:53 PM 57.0 °F - 28.0 °F 33% 29.99 in 10.0 mi ESE 6.9 mph - N/A   Clear
10:53 PM 54.0 °F - 28.0 °F 37% 30.00 in 10.0 mi ESE 8.1 mph - N/A   Clear